Weather History for Park Rapids, MN

Change the Weather History Date:

Sunday, December 4, 2011

  Actual Average Record
Temperature  
Mean Temperature 14 °F -  
Max Temperature 19 °F 25 °F 45 °F (1951)
Min Temperature 9 °F 7 °F -27 °F (1991)
Degree Days  
Heating Degree Days 50    
Moisture  
Dew Point 9 °F    
Average Humidity 78    
Maximum Humidity 88    
Minimum Humidity 68    
Precipitation  
Precipitation 0.00 in - - ()
Sea Level Pressure  
Sea Level Pressure 30.23 in    
Wind  
Wind Speed 8 mph (NNW)    
Max Wind Speed 13 mph    
Max Gust Speed -    
Visibility 9 miles    
Events Snow    
Averages and records for this station are not official NWS values.
T = Trace of Precipitation, MM = Missing Value Source: NWS Daily Summary

Daily Weather History Graph

Daily Weather History Graph

Search for Another Location

Airport:

Trip Planner

Search our weather history database for the weather conditions in past years. The results will help you decide how hot, cold, wet, or windy it might be!

Date:

Astronomy

Dec. 04, 2011 Rise Set
Actual Time 7:48 AM CST 4:32 PM CST
Civil Twilight 7:13 AM CST 5:07 PM CST
Nautical Twilight 6:35 AM CST 5:45 PM CST
Astronomical Twilight 5:58 AM CST 6:22 PM CST
Moon 1:18 PM CST (12/4) 1:57 AM CST (12/4)
Length of Visible Light 9h 53m
Length of Day
8h 44m
Waxing Gibbous, 72% of the Moon is Illuminated
Dec 4
Waxing Gibbous
Dec 10
Full
Dec 17
Last Quarter
Dec 24
New
Jan 1
First Quarter

Hourly Weather History & Observations

Time (CST) Temp. Windchill Dew Point Humidity Pressure Visibility Wind Dir Wind Speed Gust Speed Precip Events Conditions
12:53 AM 16.0 °F 2.3 °F 10.0 °F 77% 30.07 in 10.0 mi NNW 12.7 mph - N/A   Overcast
1:08 AM 15.8 °F 2.1 °F 10.4 °F 79% 30.00 in 10.0 mi NNW 12.7 mph - N/A   Overcast
1:53 AM 15.1 °F 1.8 °F 10.0 °F 80% 30.08 in 10.0 mi NNW 11.5 mph - N/A   Overcast
2:53 AM 15.1 °F 3.3 °F 9.0 °F 77% 30.09 in 10.0 mi North 9.2 mph - N/A   Overcast
3:53 AM 14.0 °F 2.9 °F 9.0 °F 80% 30.10 in 9.0 mi NNW 8.1 mph - N/A   Overcast
4:53 AM 12.9 °F 2.6 °F 9.0 °F 84% 30.11 in 9.0 mi NW 6.9 mph - 0.00 in   Overcast
5:53 AM 12.9 °F 2.6 °F 9.0 °F 84% 30.12 in 9.0 mi NW 6.9 mph - 0.00 in   Overcast
6:53 AM 12.9 °F 3.8 °F 9.0 °F 84% 30.14 in 8.0 mi NW 5.8 mph - 0.00 in   Overcast
7:53 AM 14.0 °F 5.1 °F 10.0 °F 84% 30.16 in 9.0 mi NNW 5.8 mph - 0.00 in   Overcast
8:53 AM 14.0 °F 2.9 °F 10.0 °F 84% 30.19 in 5.0 mi North 8.1 mph - N/A   Overcast
9:53 AM 15.1 °F 7.7 °F 10.0 °F 80% 30.21 in 2.5 mi North 4.6 mph - 0.00 in Snow Light Snow
10:06 AM 15.8 °F 7.2 °F 10.4 °F 79% 30.12 in 4.0 mi Variable 5.8 mph - 0.00 in Snow Light Snow
10:53 AM 16.0 °F 8.8 °F 9.0 °F 74% 30.22 in 9.0 mi NE 4.6 mph - 0.00 in   Overcast
11:53 AM 16.0 °F 10.4 °F 9.0 °F 74% 30.23 in 9.0 mi North 3.5 mph - N/A   Overcast
12:07 PM 17.6 °F 10.7 °F 10.4 °F 73% 30.14 in 8.0 mi NNW 4.6 mph - N/A   Overcast
12:53 PM 17.1 °F 11.7 °F 10.0 °F 74% 30.23 in 10.0 mi WNW 3.5 mph - N/A   Overcast
1:53 PM 18.0 °F 9.8 °F 10.0 °F 71% 30.23 in 10.0 mi NNE 5.8 mph - N/A   Overcast
2:53 PM 19.0 °F 8.2 °F 10.0 °F 68% 30.25 in 10.0 mi NNW 9.2 mph - N/A   Overcast
3:50 PM 17.6 °F 9.3 °F 10.4 °F 73% 30.17 in 10.0 mi North 5.8 mph - N/A   Scattered Clouds
3:53 PM 18.0 °F 9.8 °F 10.0 °F 71% 30.27 in 10.0 mi North 5.8 mph - N/A   Partly Cloudy
4:36 PM 15.8 °F 8.6 °F 8.6 °F 73% 30.20 in 10.0 mi NNW 4.6 mph - N/A   Mostly Cloudy
4:53 PM 15.1 °F 7.7 °F 9.0 °F 77% 30.30 in 10.0 mi North 4.6 mph - N/A   Mostly Cloudy
5:53 PM 16.0 °F 8.8 °F 10.0 °F 77% 30.33 in 10.0 mi North 4.6 mph - N/A   Mostly Cloudy
6:00 PM 12.2 °F 2.9 °F 8.6 °F 85% 30.24 in 10.0 mi NNW 5.8 mph - N/A   Scattered Clouds
6:53 PM 16.0 °F 7.4 °F 10.0 °F 77% 30.36 in 10.0 mi North 5.8 mph - N/A   Scattered Clouds
7:11 PM 15.8 °F 5.1 °F 10.4 °F 79% 30.27 in 10.0 mi NNW 8.1 mph - N/A   Mostly Cloudy
7:23 PM 15.8 °F 6.1 °F 10.4 °F 79% 30.27 in 10.0 mi North 6.9 mph - N/A   Scattered Clouds
7:50 PM 15.8 °F 7.2 °F 8.6 °F 73% 30.28 in 10.0 mi NNW 5.8 mph - N/A   Mostly Cloudy
7:53 PM 14.0 °F 5.1 °F 9.0 °F 80% 30.38 in 10.0 mi NNW 5.8 mph - N/A   Mostly Cloudy
8:53 PM 10.9 °F 0.2 °F 7.0 °F 84% 30.41 in 10.0 mi NNW 6.9 mph - N/A   Scattered Clouds
9:53 PM 12.9 °F -0.2 °F 9.0 °F 84% 30.43 in 10.0 mi NNE 10.4 mph - N/A   Clear
10:53 PM 12.0 °F -0.4 °F 8.1 °F 84% 30.44 in 10.0 mi North 9.2 mph - N/A   Clear
11:53 PM 9.0 °F -0.9 °F 6.1 °F 88% 30.48 in 10.0 mi NNW 5.8 mph - N/A   Mostly Cloudy